Houston, TX

12:35 AM CDT on September 26, 2016 (GMT -0500)
Hobby

Weather History for KHOU - March, 2014

Change the Weather History Date:

Saturday, March 1, 2014

  Actual Average Record
Temperature  
Mean Temperature 74 °F 59 °F  
Max Temperature 83 °F 69 °F 84 °F (1975)
Min Temperature 64 °F 50 °F 28 °F (1980)
Degree Days  
Heating Degree Days 0 7  
Month to date heating degree days 0 7  
Since 1 July heating degree days 1480 1195  
Cooling Degree Days 7 1  
Month to date cooling degree days 1  
Year to date cooling degree days 39  
Growing Degree Days 22 (Base 50)    
Moisture  
Dew Point 64 °F    
Average Humidity 76    
Maximum Humidity 100    
Minimum Humidity 51    
Precipitation  
Precipitation 0.00 in 0.11 in 3.32 in (1993)
Month to date precipitation 0.00 0.11  
Year to date precipitation 3.35 6.69  
Sea Level Pressure  
Sea Level Pressure 30.01 in    
Wind  
Wind Speed 7 mph (SSE)    
Max Wind Speed 18 mph    
Max Gust Speed 25 mph    
Visibility 8 miles    
Events Fog    
T = Trace of Precipitation, MM = Missing Value Source: NWS Daily Summary

Daily Weather History Graph

Daily Weather History Graph

Search for Another Location

Airport or City:

Trip Planner

Search our weather history database for the weather conditions in past years. The results will help you decide how hot, cold, wet, or windy it might be!

Date:

Astronomy

Mar. 01, 2014 Rise Set
Actual Time 6:46 AM CST 6:20 PM CST
Civil Twilight 6:22 AM CST 6:44 PM CST
Nautical Twilight 5:55 AM CST 7:12 PM CST
Astronomical Twilight 5:27 AM CST 7:39 PM CST
Moon 6:45 AM CST (3/1) 7:02 PM CST (3/1)
Length of Visible Light 12h 21m
Length of Day
11h 33m
New Moon, 0% of the Moon is Illuminated
Mar 1
New Moon
Mar 8
First Quarter
Mar 16
Full
Mar 23
Last Quarter
Mar 30
New

Hourly Weather History & Observations

Time (CST) Temp. Heat Index Dew Point Humidity Pressure Visibility Wind Dir Wind Speed Gust Speed Precip Events Conditions
12:53 AM 66.0 °F - 63.0 °F 90% 29.95 in 9.0 mi SE 3.5 mph - N/A   Overcast
1:27 AM 66.2 °F - 62.6 °F 88% 29.95 in 8.0 mi SSE 5.8 mph - N/A   Overcast
1:53 AM 66.0 °F - 63.0 °F 90% 29.96 in 8.0 mi SSE 4.6 mph - N/A   Overcast
2:53 AM 66.0 °F - 63.0 °F 90% 29.96 in 8.0 mi SSE 5.8 mph - N/A   Overcast
3:06 AM 66.2 °F - 62.6 °F 88% 29.95 in 8.0 mi South 6.9 mph - N/A   Overcast
3:51 AM 64.4 °F - 62.6 °F 94% 29.95 in 9.0 mi SSE 4.6 mph - N/A   Overcast
3:53 AM 64.9 °F - 63.0 °F 93% 29.96 in 9.0 mi SSE 5.8 mph - N/A   Overcast
4:34 AM 64.4 °F - 62.6 °F 94% 29.95 in 9.0 mi South 5.8 mph - N/A   Mostly Cloudy
4:53 AM 64.9 °F - 63.0 °F 93% 29.97 in 9.0 mi SSE 4.6 mph - N/A   Mostly Cloudy
5:53 AM 64.9 °F - 63.0 °F 93% 30.00 in 9.0 mi SSE 4.6 mph - N/A   Mostly Cloudy
6:53 AM 64.9 °F - 63.0 °F 93% 30.02 in 8.0 mi South 3.5 mph - N/A   Overcast
6:59 AM 64.4 °F - 62.6 °F 94% 30.01 in 8.0 mi SSE 3.5 mph - N/A   Overcast
7:16 AM 64.4 °F - 62.6 °F 94% 30.01 in 6.0 mi SSE 4.6 mph - N/A   Overcast
7:38 AM 64.4 °F - 62.6 °F 94% 30.02 in 2.0 mi South 5.8 mph - N/A   Overcast
7:53 AM 64.9 °F - 64.0 °F 97% 30.04 in 0.5 mi South 6.9 mph - N/A Fog Fog
8:13 AM 66.2 °F - 64.4 °F 94% 30.03 in 1.0 mi Calm Calm - N/A   Overcast
8:37 AM 66.2 °F - 64.4 °F 94% 30.04 in 2.0 mi South 6.9 mph - N/A   Overcast
8:53 AM 66.9 °F - 64.9 °F 93% 30.06 in 7.0 mi SSE 9.2 mph - N/A   Overcast
9:08 AM 68.0 °F - 64.4 °F 88% 30.05 in 10.0 mi SSE 6.9 mph - N/A   Overcast
9:53 AM 71.1 °F - 66.0 °F 84% 30.07 in 10.0 mi South 12.7 mph - N/A   Mostly Cloudy
10:13 AM 73.4 °F - 66.2 °F 78% 30.06 in 10.0 mi South 9.2 mph - N/A   Overcast
10:53 AM 73.9 °F - 66.0 °F 76% 30.07 in 10.0 mi SSW 6.9 mph - N/A   Mostly Cloudy
11:53 AM 79.0 °F - 66.0 °F 64% 30.05 in 10.0 mi South 11.5 mph 24.2 mph N/A   Mostly Cloudy
12:10 PM 80.6 °F 82.7 °F 66.2 °F 61% 30.02 in 10.0 mi South 15.0 mph 20.7 mph N/A   Scattered Clouds
12:53 PM 80.1 °F 82.1 °F 66.0 °F 62% 30.02 in 10.0 mi South 17.3 mph 25.3 mph N/A   Scattered Clouds
1:53 PM 80.1 °F 81.9 °F 64.9 °F 60% 30.00 in 10.0 mi South 13.8 mph 25.3 mph N/A   Scattered Clouds
2:53 PM 80.1 °F 81.9 °F 64.9 °F 60% 29.99 in 10.0 mi SSW 13.8 mph 24.2 mph N/A   Scattered Clouds
3:53 PM 78.1 °F - 66.0 °F 66% 29.99 in 10.0 mi South 16.1 mph 23.0 mph N/A   Scattered Clouds
4:53 PM 75.0 °F - 66.0 °F 73% 30.00 in 10.0 mi SSE 12.7 mph - N/A   Mostly Cloudy
5:53 PM 73.0 °F - 66.0 °F 79% 30.02 in 10.0 mi SSE 10.4 mph - N/A   Mostly Cloudy
6:53 PM 70.0 °F - 64.9 °F 84% 30.03 in 10.0 mi SSE 10.4 mph - N/A   Mostly Cloudy
7:53 PM 70.0 °F - 66.0 °F 87% 30.03 in 10.0 mi SSE 11.5 mph 17.3 mph N/A   Mostly Cloudy
8:53 PM 70.0 °F - 64.9 °F 84% 30.03 in 10.0 mi SSE 9.2 mph - N/A   Mostly Cloudy
9:53 PM 69.1 °F - 64.9 °F 87% 30.02 in 10.0 mi SSE 12.7 mph 19.6 mph N/A   Mostly Cloudy
10:46 PM 69.8 °F - 64.4 °F 83% 30.01 in 10.0 mi South 12.7 mph 20.7 mph N/A   Mostly Cloudy
10:53 PM 69.1 °F - 64.9 °F 87% 30.02 in 10.0 mi SSE 11.5 mph 20.7 mph N/A   Mostly Cloudy
11:53 PM 70.0 °F - 64.9 °F 84% 30.03 in 10.0 mi South 8.1 mph - N/A   Overcast